User: anonymous   Login
Location: Unspecified
(0.0000°N, 0.0000°E)
Time: 01:27:55
(UTC+00:00)
Language:

TRS 9 - Orbit

View from above orbital plane
View from above orbital plane
View from above satellite
View from above satellite

Ground track
Ground track

The orbit data is extracted from the following two-line orbital elements,

1   635U 63030B   18174.53860473 +.00000024 +00000-0 +10845-1 0  9998
2   635 088.4328 017.8943 0059799 080.1946 280.5650 08.57926052720388
Epoch (UTC): 23 June 2018 12:55:35
Eccentricity: 0.0059799
inclination: 88.4328°
perigee height: 3641 km
apogee height: 3761 km
right ascension of ascending node: 17.8943°
argument of perigee: 80.1946°
revolutions per day: 8.57926052
mean anomaly at epoch: 280.5650°
orbit number at epoch: 72038

The dashed part of the orbit path shows where the satellite is in the earth's shadow,  

DLR